Regional Weather Roundup
Issued by NWS

Home | Current Version | Previous Version | Text Only | Print | Product List | Glossary On
Versions: 1 2 3 4 5 6 7 8 9 10 11 12 13 14 15 16 17 18 19 20 21 22 23 24 25 26 27 28 29 30 31 32 33 34 35 36 37 38 39 40 41 42 43 44 45 46 47 48 49 50
000
ASUS43 KDTX 201910
RWRMI
MICHIGAN HOURLY REGIONAL WEATHER ROUNDUP
NATIONAL WEATHER SERVICE DETROIT/PONTIAC MI
200 PM EST TUE FEB 20 2018

NOTE: "FAIR" INDICATES FEW OR NO CLOUDS BELOW 12,000 FEET WITH NO
SIGNIFICANT WEATHER AND/OR OBSTRUCTION TO VISIBILITY.

MIZ047>049-052>055-059>063-066>070-074>076-081>083-202000-
SOUTHEAST LOWER MICHIGAN

CITY           SKY/WX    TMP DP  RH WIND       PRES   REMARKS
ADRIAN         LGT RAIN  59  57  93 SW15      30.01F FOG
ALMA           RAIN      56  56 100 S15       29.90S
ANN ARBOR      HVY RAIN  60  59  96 S16G26    29.99S FOG
BAD AXE        PTSUNNY   59  59  99 SW12G17   29.91R
CARO           DRIZZLE   60  58  93 S14       29.91R
DETROIT CITY   LGT RAIN  61  58  90 SW16      29.99S
DETROIT        LGT RAIN  63  59  87 SW26G36   30.00S
FLINT          RAIN      57  57 100 S8        29.94S FOG
GROSSE ILE     LGT RAIN  50  50  98 S12       30.01S VSB 3/4
HILLSDALE      RAIN      59  55  88 SW13G22   29.98F
HOWELL         RAIN      60  58  96 S13       29.95S

CITY           SKY/WX    TMP DP  RH WIND       PRES   REMARKS
JACKSON        LGT RAIN  62  59  90 S20G29    29.96S
LAMBERTVILLE   RAIN      62  59  91 SW12G20   30.02S
LANSING        CLOUDY    60  59  96 S14       29.92F
LAPEER         RAIN      58  57  98 S7        29.96R
MASON          RAIN      61  57  88 S8G16     29.94S
MONROE         RAIN      62  59  91 SW15G25   30.01S
MT. CLEMENS    LGT RAIN  61  61 100 SW16G26   29.97S
PONTIAC        LGT RAIN  60  58  92 SW15G23   29.96F FOG
PORT HOPE        N/A     61  55  81 VRB7      29.87R
PORT HURON     CLOUDY    57  54  88 SW5       29.98S
TRI CITIES     CLOUDY    59  56  89 S14       29.90S
MIDLAND        CLOUDY    58  57  96 S10       29.87F
TROY           LGT RAIN  62  59  91 SW18G29   30.00S
SAGINAW HB     CLOUDY    57  55  94 SW15      29.90R
$$
MIZ043>046-050>051-056>058-064>065-071>073-077>080-202000-
SOUTHWEST LOWER MICHIGAN

CITY           SKY/WX    TMP DP  RH WIND       PRES   REMARKS
BATTLE CREEK   RAIN      61  59  93 S17       29.93S FOG
BENTON HARBOR  LGT RAIN  64  59  83 S15       29.88S
BIG RAPIDS     CLOUDY    56  54  91 S12G21    29.84F
COLDWATER      LGT RAIN  61  61 100 S14G22    29.96S
FREMONT        CLOUDY    55  55  97 S9        29.83F FOG
HOLLAND        CLOUDY    64  59  83 SW18G26   29.86F
GRAND RAPIDS   CLOUDY    60  59  96 S7        29.88F
IONIA          RAIN      55  55 100 S7        29.89F
KALAMAZOO      RAIN      62  59  90 S15       29.92F FOG
LUDINGTON      CLOUDY    55  54  97 S7        29.79F
MARSHALL       RAIN      61  60  97 S12G22    29.94S
MOUNT PLEASANT CLOUDY    59  58  95 S7        29.86S
MUSKEGON       CLOUDY    58  55  90 S15G23    29.84F
SOUTH HAVEN    CLOUDY    64  61  88 S13G21    29.87F
$$
MIZ016>042-202000-
NORTHERN LOWER MICHIGAN

CITY           SKY/WX    TMP DP  RH WIND       PRES   REMARKS
ALPENA         CLOUDY    44  44 100 S7        29.80F
BEAVER ISLAND  CLOUDY    42  39  91 SW12G18   29.78R
BELLAIRE       PTSUNNY   56  52  85 S5        29.79R
CADILLAC       CLOUDY    54  54  99 SW12      29.81F
CHARLEVOIX     PTSUNNY   54  50  86 SW3       29.81R
FRANKFORT      LGT RAIN  54  52  94 S14G22    29.79F
GAYLORD        FAIR      52  50  93 S14G22    29.79R
GRAYLING       PTSUNNY   55  53  91 SW10      29.80R
HARBOR SPRINGS FAIR      46  45  97 CALM      29.77R
HOUGHTON LAKE  CLOUDY    54  53  97 SW9       29.84R FOG
MANISTEE       LGT RAIN  52  52 100 CALM      29.79F
OSCODA         CLOUDY    54  54  98 S13       29.83S
PELLSTON       FOG       36  36 100 CALM      29.79R VSB 1/4
ROGERS CITY    FOG       42  41  97 SW3       29.79F VSB 1/2
TRAVERSE CITY  CLOUDY    58  51  78 S9        29.77S
$$
MIZ007>008-015-202000-
EASTERN UPPER MICHIGAN

CITY           SKY/WX    TMP DP  RH WIND       PRES   REMARKS
KINROSS        SNOW      28  27  96 SE8       29.79S VSB 1/2 WCI  20
MACKINAC ISLAN FOG       32  32 100 E7        29.78S VSB 1/4 WCI  26
NEWBERRY       FOG       33  32  98 SE6       29.76S VSB 1/4 WCI  27
S. S. MARIE    FOG       29  27  92 SE6       29.80F VSB 3/4 WCI  23
MUNISING         N/A     28  28 100 N3        29.78R
$$
MIZ004>006-011>014-085-202000-
CENTRAL UPPER MICHIGAN

CITY           SKY/WX    TMP DP  RH WIND       PRES   REMARKS
MANISTIQUE     FOG       34  32  94 S6        29.76S VSB 1/4 WCI  28
ESCANABA       CLOUDY    31  29  92 W9        29.80R FOG     WCI  23
MENOMINEE      CLOUDY    33  31  92 VRB3      29.80S FOG
SAWYER-GWINN   CLOUDY    27  25  93 SW6       29.76R FOG     WCI  20
$$
MIZ001>003-009>011-084-202000-
WESTERN UPPER MICHIGAN

CITY           SKY/WX    TMP DP  RH WIND       PRES   REMARKS
IRON MOUNTAIN  CLOUDY    30  29  96 CALM      29.75S FOG
HOUGHTON       CLOUDY    27  23  85 CALM      29.74F FOG
COPPER HARBOR    N/A     28  25  88 CALM      29.78R
IRONWOOD       CLOUDY    23  20  88 W9        29.80R WCI  13
$$

ABBREVIATIONS USED IN REMARKS
   TC - TEMPERATURE IN CELSIUS
  WCI - WIND CHILL INDEX
   HX - HEAT INDEX
  VSB - VISIBILITY





USA.gov is the U.S. government's official web portal to all federal, state and local government web resources and services.